CZ-4C DEB, 43424

Orbit data source: Space-Track

CZ-4C DEB, 43424 is space debris in SSO originally from a launch on Thu, 27 Aug 2015 UTC launched from the Taiyaun Space Center, China (TSC). Debris objects in space refer to the collection of defunct objects orbiting the Earth. Examples of debris include non-operational satellites, rocket bodies, and fragments generated from explosions, collisions, or faulty payload assembly.

Loading next visibility...
Identifier
43424, 2015-040C
Orbit
SSO
Country
Flag of CNCN / PRC
Related business
Manufacturer
SAST
Mission
Spacecraft
Bus & Motor
Unknown
Mass
Unknown
Launch date (UTC)
2015-08-27 (11 years ago)
Launch vehicle
Unknown
Launch site
Taiyaun Space Center, China (TSC)
Object type
Payload
Rocket body
Debris
Shape & HBR
Unknown shape, 0.1 m
Radar Cross Section
Small (<0.1 m²)

Expand to show TLE details & history
Last TLE update: 3 days ago

TLE from 3 days ago
0 CZ-4C DEB
1 43424U 15040C   26170.12996141  .00000057  00000-0  27347-3 0  9994
2 43424 100.3201 140.8915 0150386 310.2886  48.5159 13.10582123512483
Epoch: 2026-06-19T03:07Z
TLE epoch observation values (Epoch: 2026-06-19T03:07:08.665Z)
Latitude
-0.00009°
Longitude
-173.25795°
Altitude
1,148.885 km
Speed
7.314 km/s
True Right ascension
09h 23m 33s
True Declination
0° 00' 00"
Sunlit
Object was in daylight at epoch
Visualization orbit readout
Latitude
Unknown
Longitude
Unknown
Altitude
Unknown
Speed
Unknown
Apparent Right ascension
Unknown
Apparent Declination
Unknown
Sunlit
N/A
Visualization observer readout
Local Sidereal Time
21:52:15
Azimuth
Unknown
Elevation
Unknown
Doppler factor
Unknown
Orbital elements
Apogee altitude
1,332.533 km
Perigee altitude
1,104.054 km
Semi-major axis
7,596.431 km
Eccentricity
0.01504
Inclination
100.3201°
RAAN
140.8915°
Arg. of periapsis
310.2886°
True anomaly
49.82305°
Mean anomaly
48.5159°
Eccentric anomaly
49.16785°
Mean motion
3.27815 °/min
Orbital period
109.82 mins
BSTAR
0.00027347
Loading maneuver chart data...
Computing Atmospheric mass density...
Loading historical data...
Loading historical data...
Loading historical data...
Loading historical data...
Loading historical data...
Loading historical data...
Loading historical data...
Other satellites on launch #40 in the year 2015 (2015-08-27 UTC)

Documentation

Showing up to 5 results
|